This is the latest recevied weather packets stored in our database for station/object W0WC. If no packets are shown the sender has not sent any weather packets the latest 10 day(s).
| Time | Temp. | Humidity | Pressure | Rain* | Wind** | Luminosity | Snow |
|---|---|---|---|---|---|---|---|
| 1777683407 | 15.56° C | 50% | 1017.6 hPa | 0 mm | - | 9 W/m² | - |
| 1777683104 | 15.56° C | 48% | 1017.4 hPa | 0 mm | - | 14 W/m² | - |
| 1777682800 | 16.11° C | 41% | 1017.5 hPa | 0 mm | - | 18 W/m² | - |
| 1777682497 | 16.11° C | 42% | 1017.3 hPa | 0 mm | - | 20 W/m² | - |
| 1777682195 | 16.67° C | 44% | 1017.5 hPa | 0 mm | - | 23 W/m² | - |
| 1777681892 | 17.22° C | 39% | 1017.3 hPa | 0 mm | - | 27 W/m² | - |
| 1777681588 | 17.78° C | 39% | 1017.3 hPa | 0 mm | - | 32 W/m² | - |
| 1777681286 | 17.78° C | 36% | 1017.1 hPa | 0 mm | - | 36 W/m² | - |
| 1777680983 | 18.33° C | 34% | 1017.2 hPa | 0 mm | - | 44 W/m² | - |
| 1777680680 | 18.33° C | 33% | 1017 hPa | 0 mm | - | 56 W/m² | - |
| 1777680378 | 18.33° C | 33% | 1017.1 hPa | 0 mm | - | 68 W/m² | - |
| 1777680076 | 18.33° C | 34% | 1017 hPa | 0 mm | - | 73 W/m² | - |
| 1777679771 | 18.33° C | 35% | 1017.1 hPa | 0 mm | - | 79 W/m² | - |
| 1777679467 | 18.89° C | 33% | 1017.1 hPa | 0 mm | - | 86 W/m² | - |
| 1777679163 | 19.44° C | 30% | 1016.9 hPa | 0 mm | - | 108 W/m² | - |
| 1777678861 | 18.89° C | 32% | 1017 hPa | 0 mm | - | 119 W/m² | - |
| 1777678559 | 18.33° C | 32% | 1017.1 hPa | 0 mm | - | 134 W/m² | - |
| 1777678255 | 18.33° C | 33% | 1017 hPa | 0 mm | - | 126 W/m² | - |
| 1777677951 | 18.33° C | 31% | 1017.2 hPa | 0 mm | - | 154 W/m² | - |
| 1777677649 | 18.33° C | 31% | 1017.2 hPa | 0 mm | - | 177 W/m² | - |
| 1777677347 | 18.89° C | 32% | 1017.2 hPa | 0 mm | - | 176 W/m² | - |
| 1777677045 | 18.33° C | 32% | 1017.1 hPa | 0 mm | - | 204 W/m² | - |
| 1777676743 | 18.33° C | 32% | 1017.2 hPa | 0 mm | - | 211 W/m² | - |
| 1777676441 | 18.33° C | 32% | 1017 hPa | 0 mm | - | 228 W/m² | - |
| 1777676138 | 18.33° C | 32% | 1017 hPa | 0 mm | - | 238 W/m² | - |
* Rain latest hour (hover to see other rain measurements)
** Current wind speed in m/s (hover to see current wind gust speed)